Home   Weather   City of Washington   Past weeks
Flag for USA

Past Weather in City of Washington, Kansas, USA — Yesterday and Last 2 Weeks

Now
48 °F

Overcast.


Feels Like: 45 °F
Forecast: 66 / 45 °F
Wind: 7 mph from North

Location: Hebron Municipal Airport

Current Time: Apr 23, 2019 at 3:49:13 am

Latest Report: Apr 23, 2019 at 3:15 am


Visibility: 10 mi

Pressure: 30.15 "Hg

Humidity: 87%

Dew Point: 45 °F

Location of City of WashingtonLocation

Past Weather in City of Washington — Graph

°F

City of Washington Temperature Yesterday

Maximum temperature yesterday: 61 °F (at 12:35 pm)
Minimum temperature yesterday: 52 °F (at 11:50 pm)
Average temperature yesterday: 57 °F

High & Low Weather Summary for the Past Weeks

 TemperatureHumidityPressure
High87 °F (Apr 20, 4:55 pm)96% (Apr 11, 5:55 am)30.18 "Hg (Apr 11, 5:55 am)
Low26 °F (Apr 13, 3:55 am)18% (Apr 20, 4:55 pm)29.24 "Hg (Apr 11, 3:35 am)
Average55 °F59%29.81 "Hg
* Reported Apr 8 2:15 am — Apr 23 2:35 am, City of Washington. Weather by CustomWeather, © 2019

Note: Actual official high and low records may vary slightly from our data, if they occured in-between our weather recording intervals... More about our weather records

Advertising

City of Washington Weather History for the Previous 24 Hours

Scroll right to see more
 ConditionsComfort  
Time TempWeatherWind HumidityBarometerVisibility
2:35 am
Tue, Apr 23
47 °FOvercast.5 mph92%30.15 "Hg10 mi
1:55 am47 °FClear.3 mph91%30.15 "Hg10 mi
1:35 am49 °FClear.6 mph90%30.14 "Hg10 mi
12:55 am51 °FMostly cloudy.No wind87%30.14 "Hg10 mi
12:35 am51 °FMostly cloudy.No wind84%30.14 "Hg10 mi
12:15 am52 °FOvercast.5 mph82%30.14 "Hg10 mi
11:50 pm
Mon, Apr 22
52 °FOvercast.5 mph82%30.14 "Hg10 mi
11:35 pm52 °FOvercast.6 mph82%30.15 "Hg10 mi
11:15 pm53 °FOvercast.6 mph80%30.15 "Hg10 mi
10:55 pm54 °FMostly cloudy.7 mph79%30.15 "Hg10 mi
10:35 pm54 °FOvercast.10 mph79%30.15 "Hg10 mi
10:15 pm53 °FPassing clouds.6 mph81%30.15 "Hg10 mi
9:55 pm53 °FPassing clouds.7 mph81%30.15 "Hg10 mi
9:35 pm53 °FPassing clouds.No wind80%30.14 "Hg10 mi
9:15 pm53 °FClear.5 mph81%30.13 "Hg10 mi
8:55 pm53 °FClear.5 mph80%30.13 "Hg10 mi
8:35 pm54 °FPassing clouds.6 mph77%30.12 "Hg10 mi
8:15 pm56 °FPassing clouds.6 mph74%30.11 "Hg10 mi
7:55 pm56 °FPartly sunny.12 mph72%30.10 "Hg10 mi
7:15 pm57 °FOvercast.15 mph70%30.09 "Hg10 mi
6:55 pm56 °FOvercast.15 mph71%30.09 "Hg10 mi
6:35 pm57 °FOvercast.14 mph71%30.09 "Hg10 mi
6:15 pm57 °FOvercast.16 mph69%30.09 "Hg10 mi
5:55 pm57 °FOvercast.15 mph69%30.09 "Hg10 mi
5:35 pm58 °FOvercast.15 mph69%30.08 "Hg10 mi
5:15 pm58 °FOvercast.15 mph68%30.08 "Hg10 mi
4:55 pm58 °FOvercast.14 mph67%30.08 "Hg10 mi
4:35 pm57 °FOvercast.12 mph70%30.08 "Hg10 mi
4:15 pm57 °FOvercast.15 mph69%30.08 "Hg10 mi
3:55 pm57 °FOvercast.14 mph68%30.07 "Hg10 mi
3:35 pm58 °FOvercast.17 mph66%30.07 "Hg10 mi
3:15 pm58 °FOvercast.17 mph66%30.06 "Hg10 mi
2:55 pm58 °FOvercast.14 mph66%30.06 "Hg10 mi
2:35 pm58 °FOvercast.15 mph66%30.05 "Hg10 mi
2:15 pm59 °FOvercast.16 mph65%30.05 "Hg10 mi
1:55 pm59 °FOvercast.15 mph66%30.05 "Hg10 mi
1:35 pm60 °FOvercast.14 mph64%30.05 "Hg10 mi
12:55 pm60 °FPartly sunny.16 mph64%30.04 "Hg10 mi
12:35 pm61 °FOvercast.17 mph66%30.03 "Hg10 mi
12:15 pm60 °FOvercast.15 mph66%30.03 "Hg10 mi
11:55 am58 °FOvercast.15 mph70%30.03 "Hg10 mi
11:35 am58 °FOvercast.13 mph72%30.03 "Hg10 mi
11:15 am56 °FOvercast.12 mph77%30.03 "Hg10 mi
10:55 am55 °FOvercast.13 mph77%30.03 "Hg10 mi
10:35 am55 °FOvercast.12 mph79%30.02 "Hg10 mi
10:15 am54 °FOvercast.10 mph80%30.01 "Hg10 mi
9:55 am54 °FOvercast.14 mph81%30.01 "Hg10 mi
9:35 am54 °FOvercast.13 mph80%30.00 "Hg10 mi
9:15 am54 °FOvercast.10 mph82%29.99 "Hg10 mi
8:55 am54 °FOvercast.10 mph81%29.98 "Hg10 mi
8:35 am55 °FOvercast.9 mph84%29.97 "Hg10 mi
8:15 am55 °FOvercast.12 mph82%29.95 "Hg10 mi
7:55 am55 °FOvercast.14 mph83%29.95 "Hg10 mi
7:35 am55 °FOvercast.13 mph83%29.94 "Hg10 mi
6:55 am56 °FOvercast.15 mph86%29.90 "Hg10 mi
6:35 am57 °FOvercast.12 mph86%29.89 "Hg10 mi
6:15 am58 °FOvercast.10 mph86%29.88 "Hg10 mi
5:55 am57 °FPassing clouds.9 mph88%29.86 "Hg10 mi
5:35 am58 °FClear.12 mph85%29.85 "Hg10 mi
5:15 am58 °FClear.6 mph86%29.85 "Hg10 mi
4:55 am58 °FClear.6 mph87%29.83 "Hg10 mi
4:35 am58 °FClear.5 mph87%29.82 "Hg10 mi
4:15 am58 °FClear.3 mph86%29.81 "Hg10 mi
3:55 am59 °FPassing clouds.3 mph85%29.81 "Hg10 mi
3:35 am60 °FPassing clouds.13 mph84%29.82 "Hg10 mi
3:15 am60 °FClear.8 mph81%29.82 "Hg10 mi
Weather by CustomWeather, © 2019

See weather overview